Hickory, NC

2:16 AM EDT on March 26, 2017 (GMT -0400)
Hickory Regional

Weather History for KHKY - January, 2014

Change the Weather History Date:

Friday, January 24, 2014

  Actual Average Record
Temperature  
Mean Temperature 18 °F -  
Max Temperature 28 °F 49 °F 72 °F (1967)
Min Temperature 8 °F 30 °F 3 °F (1963)
Degree Days  
Heating Degree Days 47    
Moisture  
Dew Point -9 °F    
Average Humidity 31    
Maximum Humidity 48    
Minimum Humidity 15    
Precipitation  
Precipitation 0.00 in - - ()
Sea Level Pressure  
Sea Level Pressure 30.43 in    
Wind  
Wind Speed 8 mph (WSW)    
Max Wind Speed 13 mph    
Max Gust Speed 21 mph    
Visibility 10 miles    
Events      
Averages and records for this station are not official NWS values.
T = Trace of Precipitation, MM = Missing Value Source: NWS Daily Summary

Daily Weather History Graph

Daily Weather History Graph

Search for Another Location

Airport or City:

Trip Planner

Search our weather history database for the weather conditions in past years. The results will help you decide how hot, cold, wet, or windy it might be!

Date:

Astronomy

Jan. 24, 2014 Rise Set
Actual Time 7:31 AM EST 5:44 PM EST
Civil Twilight 7:03 AM EST 6:12 PM EST
Nautical Twilight 6:32 AM EST 6:42 PM EST
Astronomical Twilight 6:02 AM EST 7:13 PM EST
Moon 12:59 AM EST (1/24) 12:00 PM EST (1/24)
Length of Visible Light 11h 08m
Length of Day
10h 13m
Last Quarter, 45% of the Moon is Illuminated
Jan 24
Last Quarter
Jan 30
New
Feb 6
First Quarter
Feb 14
Full
Feb 22
Last Quarter

Hourly Weather History & Observations

Time (EST) Temp. Windchill Dew Point Humidity Pressure Visibility Wind Dir Wind Speed Gust Speed Precip Events Conditions
12:53 AM 16.0 °F 2.9 °F -7.1 °F 36% 30.43 in 10.0 mi North 11.5 mph 20.7 mph N/A   Clear
1:53 AM 14.0 °F -0.2 °F -8.0 °F 37% 30.46 in 10.0 mi North 12.7 mph 20.7 mph N/A   Clear
2:53 AM 12.9 °F -1.6 °F -9.0 °F 37% 30.49 in 10.0 mi NNW 12.7 mph 19.6 mph N/A   Clear
3:53 AM 10.9 °F 1.4 °F -9.9 °F 39% 30.52 in 10.0 mi NNW 5.8 mph - N/A   Clear
4:53 AM 10.0 °F -0.9 °F -9.9 °F 40% 30.52 in 10.0 mi NNW 6.9 mph - N/A   Clear
5:53 AM 10.0 °F 1.8 °F -9.9 °F 40% 30.54 in 10.0 mi NW 4.6 mph - N/A   Clear
6:53 AM 9.0 °F -5.1 °F -9.0 °F 44% 30.56 in 10.0 mi NNW 10.4 mph - N/A   Clear
7:53 AM 8.1 °F - -8.0 °F 48% 30.56 in 10.0 mi Calm Calm - N/A   Clear
8:53 AM 10.9 °F 2.9 °F -8.0 °F 42% 30.56 in 10.0 mi Variable 4.6 mph - N/A   Clear
9:53 AM 14.0 °F 6.5 °F -8.0 °F 37% 30.58 in 10.0 mi Variable 4.6 mph - N/A   Clear
10:53 AM 18.0 °F 11.1 °F -8.0 °F 31% 30.57 in 10.0 mi Variable 4.6 mph - N/A   Clear
11:53 AM 19.9 °F 11.1 °F -9.9 °F 26% 30.55 in 10.0 mi WSW 6.9 mph - N/A   Clear
12:53 PM 21.9 °F 15.7 °F -11.0 °F 23% 30.48 in 10.0 mi Variable 4.6 mph - N/A   Clear
1:53 PM 25.0 °F 20.7 °F -11.9 °F 19% 30.43 in 10.0 mi Variable 3.5 mph - N/A   Clear
2:53 PM 27.0 °F 20.5 °F -15.0 °F 15% 30.39 in 10.0 mi SW 5.8 mph - N/A   Clear
3:53 PM 28.0 °F 20.8 °F -13.0 °F 16% 30.35 in 10.0 mi South 6.9 mph - N/A   Clear
4:53 PM 27.0 °F 18.0 °F -11.0 °F 19% 30.35 in 10.0 mi South 9.2 mph - N/A   Clear
5:53 PM 25.0 °F 17.1 °F -9.0 °F 22% 30.32 in 10.0 mi South 6.9 mph - N/A   Clear
6:53 PM 23.0 °F 17.0 °F -8.0 °F 25% 30.32 in 10.0 mi South 4.6 mph - N/A   Clear
7:53 PM 21.9 °F 13.4 °F -8.0 °F 27% 30.31 in 10.0 mi South 6.9 mph - N/A   Clear
8:53 PM 21.0 °F 12.4 °F -8.0 °F 28% 30.27 in 10.0 mi SSW 6.9 mph - N/A   Clear
9:53 PM 19.9 °F 9.3 °F -8.0 °F 29% 30.24 in 10.0 mi South 9.2 mph - N/A   Clear
10:53 PM 19.9 °F 8.6 °F -8.0 °F 29% 30.23 in 10.0 mi SSW 10.4 mph - N/A   Clear
11:53 PM 19.0 °F 6.8 °F -6.0 °F 33% 30.18 in 10.0 mi South 11.5 mph - N/A   Clear